Regional Weather Roundup
Issued by NWS Green Bay, WI

Home | Current Version | Previous Version | Text Only | Print | Product List | Glossary On
Versions: 1 2 3 4 5 6 7 8 9 10 11 12 13 14 15 16 17 18 19 20 21 22 23 24 25 26 27 28 29 30 31 32 33 34 35 36 37 38 39 40 41 42 43 44 45 46 47 48 49 50
000
ASUS43 KGRB 241610
RWRGRB

NORTH-CENTRAL AND NORTHEAST WISCONSIN REGIONAL WEATHER ROUNDUP
NATIONAL WEATHER SERVICE GREEN BAY WI
1100 AM CDT FRI APR 24 2015

WIZ005-009-010>012-018-019-241700-
NORTH CENTRAL WISCONSIN

CITY           SKY/WX    TMP DP  RH WIND       PRES   REMARKS
IRONWOOD       PTSUNNY   43  19  39 SE6       29.99F
MANITOWISH WTR MOSUNNY   42  17  36 SE5       30.01S
ARBOR VITAE    PTSUNNY   44  16  32 SE5       30.01F
EAGLE RIVER    CLOUDY    42  13  30 SE7       30.02F
LAND O LAKES   CLOUDY    43  13  29 SE3       30.03F
RHINELANDER    MOSUNNY   44  16  32 VRB6      30.02F
PHILLIPS       CLOUDY    44  17  33 SE3       29.99F
ANTIGO         CLOUDY    45  18  34 SE10      30.03F
TOMAHAWK       PTSUNNY   47  15  28 CALM      30.01F
MERRILL        PTSUNNY   46  16  30 S5        30.01F
$$

WIZ013-073-241700-
NORTHEAST WISCONSIN

CITY           SKY/WX    TMP DP  RH WIND       PRES   REMARKS
IRON MOUNTAIN  MOSUNNY   43  16  33 MISG      30.06S
MARINETTE      MOSUNNY   39  28  65 SE9       30.10S
OCONTO         CLOUDY    43  23  45 SE7       30.09S
$$

WIZ017-030-035>037-045-241700-
CENTRAL WISCONSIN

CITY           SKY/WX    TMP DP  RH WIND       PRES   REMARKS
MEDFORD        CLOUDY    43  22  42 E8        30.00S
WAUSAU         PTSUNNY   47  16  29 E10       30.00F
MOSINEE        SUNNY     46  19  34 E9        30.02F
MARSHFIELD     PTSUNNY   51  21  30 SE12      29.99F
WISC RAPIDS    MOSUNNY   53  14  21 E10G20    30.02F
STEVENS POINT  PTSUNNY   48  18  29 E13       30.02F
WAUPACA        MOSUNNY   52  16  24 E10       30.05F
SHAWANO        CLOUDY    49  18  29 E8        30.07F
CLINTONVILLE   SUNNY     48  18  29 SE9       30.06F
$$

WIZ038-039-048-051-241700-
FOX VALLEY

CITY           SKY/WX    TMP DP  RH WIND       PRES   REMARKS
NWS GREEN BAY  MOSUNNY   50  23  34 E9        30.08F
APPLETON       MOSUNNY   48  14  25 SE10      30.06F
OSHKOSH        SUNNY     50  24  36 E10       30.05F
FOND DU LAC    SUNNY     51  21  30 SE6       30.05S
$$

WIZ022-050-052-241700-
EAST CENTRAL WISCONSIN

CITY           SKY/WX    TMP DP  RH WIND       PRES   REMARKS
STURGEON BAY   MOSUNNY   43  21  42 E7        30.12S
MANITOWOC      SUNNY     43  28  55 SE10      30.11R
SHEBOYGAN      SUNNY     47  22  37 E9        30.09R
$$

LMZ563-521-522-541>543-241700-
LAKESHORE

STATION/POSITION TIME  TEMP    WIND        PRES    VSBY  WAVE
                       AIR SEA DIR/SP/G                  HT/PER
                 (UTC) (F)     (DEG/KT/KT) (MB)    (MI)  (FT/S)
SHEBOYGAN LKSHOR 1600   37     110/  7/  8 1020.2R
KEWAUNEE LKSHORE 1600   39     130/  4/  7 1018.6S
TWO RIVERS CG    1500   40                 1019.2      6   1
NORTHPORT PIER   1600   35     100/  9/ 10 1020.0S
SISTER BAY LKSHO 1600   40     360/ 11/ 12   N/A
CHAMBERS ISLAND  1600   38     360/  6/  7 1020.0S
MENOMINEE LKSHOR 1600   36      40/  7/  8 1019.9F
$$


USA.gov is the U.S. government's official web portal to all federal, state and local government web resources and services.